Regional Weather Roundup
Issued by NWS Goodland, KS

Home | Current Version | Previous Version | Graphics & Text | Print | Product List | Glossary On
Versions: 1 2 3 4 5 6 7 8 9 10 11 12 13 14 15 16 17 18 19 20 21 22 23 24 25 26 27 28 29 30 31 32 33 34 35 36 37 38 39 40 41 42 43 44 45 46 47 48 49 50
000
ASUS43 KGLD 220408
RWRGLD

GOODLAND FORECAST AREA HOURLY WEATHER ROUNDUP
NATIONAL WEATHER SERVICE GOODLAND KS
1000 PM MDT MON JUL 21 2014

...OFFICIAL OBSERVATIONS...

CITY           SKY/WX    TMP DP  RH WIND       PRES   REMARKS
GOODLAND KS    CLEAR     74  62  66 S16       30.09R
HILL CITY KS   CLOUDY    85  66  53 W9        29.97R
IMPERIAL NEB   CLEAR     80  60  50 S10       30.04R
MCCOOK NEB     PTCLDY    78  63  59 S6        29.99R
AKRON CO       PTCLDY    79  50  36 SE10      30.12R
BURLINGTON CO  CLEAR     74  61  63 SE15      30.11R
LIMON CO       CLEAR     71  45  39 CALM      30.19R
$$

...UNOFFICIAL OBSERVATIONS...

CITY           SKY/WX    TMP DP  RH WIND       PRES   REMARKS
COLBY KS       CLEAR     79  66  65 S18G28    30.06F
GOVE KS          N/A     77  32  19 MISG        N/A
LENORA KS        N/A     83  32  16 MISG        N/A
NORTON KS      CLEAR     81  61  50 SW7       29.98R
OBERLIN KS     FAIR      79  63  57 S10       30.01R
SHARON SPRINGS   N/A     73  65  75 S15         N/A
ST FRANCIS KS  CLEAR     75  57  53 S18       30.05R
WAKEENEY KS      N/A     83  57  40 MISG        N/A
KIT CARSON CO    N/A     80  54  40 N12G21      N/A
YUMA CO          N/A     74  58  56 S9          N/A
$$



USA.gov is the U.S. government's official web portal to all federal, state and local government web resources and services.